[[{"header":{"parameterUnit":"m.s-1","parameterCategory":1,"la1":30.2991,"la2":30.254,"lo1":-89.0895,"lo2":-89.0444,"dy":0.0017,"dx":0.0017,"nx":28,"ny":28,"refTime":"2023-09-17T21:00:00:Z","depth":0,"parameterNumber":2,"parameterNumberName":"U-component_of_WINDS"},"data":[0,0,0,0,0,0,0,0,0,0,0,0,0,0,0,0,0,0,0,0,0,0,0,0,0,0,0,0,0,0,0,0,0,0,0,0,0,0,0,0,0,0,0,0,0,0,0,0,0,0,0,0,0,0,0,0,0,0,-0.0436,-0.0435,0,-0.0385,-0.0385,-0.0384,-0.0402,-0.0403,-0.0404,-0.0405,-0.0351,-0.0348,-0.0346,0,0,0,0,0,0,0,0,0,0,0,0,0,-0.0546,-0.0544,-0.0436,-0.0435,-0.0435,-0.0385,-0.0385,-0.0384,-0.0401,-0.0403,-0.0404,-0.0405,-0.0351,-0.0348,-0.0345,0,0,0,0,0,0,0,0,0,0,0,0,0,-0.0497,-0.0543,-0.0436,-0.0438,-0.0437,-0.0386,-0.0385,-0.0384,-0.0401,-0.0403,-0.0404,-0.0406,-0.0352,-0.0349,-0.0345,-0.0288,0,0,-0.0334,-0.0332,0,0,0,0,0,0,0,0,-0.05,-0.0493,-0.0438,-0.0437,-0.0437,-0.0402,-0.0404,-0.0352,-0.0401,-0.0415,-0.0405,-0.0407,-0.0366,-0.0361,-0.0348,-0.0286,-0.0283,-0.0333,-0.0331,-0.0329,-0.0328,0,0,0,0,0,0,0,-0.0503,-0.0495,-0.0416,-0.0437,-0.0436,-0.044,-0.0435,-0.0394,-0.0381,-0.0414,-0.0415,-0.0409,-0.0366,-0.0352,-0.0347,-0.0283,-0.0333,-0.033,-0.0328,-0.0326,-0.0172,-0.0171,0,0,0,0,0,0,-0.0507,-0.0498,-0.0418,-0.0414,-0.0473,-0.0437,-0.0431,-0.0411,-0.0382,-0.0379,-0.0407,-0.041,-0.0357,-0.0351,-0.0345,-0.0278,-0.0329,-0.0326,-0.0324,-0.0174,-0.0172,-0.017,0,0,0,0,0,0,-0.051,-0.05,-0.042,-0.0456,-0.0447,-0.0433,-0.0411,-0.0409,-0.0395,-0.0377,-0.0375,-0.0395,-0.0358,-0.035,-0.0303,-0.0276,-0.0324,-0.0321,-0.0176,-0.0173,-0.0171,-0.0142,0,0,0,0,0,0,-0.0513,-0.0501,-0.0479,-0.0456,-0.0445,-0.0379,-0.0409,-0.0407,-0.0389,-0.0391,-0.0365,-0.0362,-0.0359,-0.0308,-0.0299,-0.0272,-0.0318,-0.0179,-0.0175,-0.0172,-0.0145,-0.0138,-0.0133,0,0,0,0,0,-0.0516,-0.0472,-0.0478,-0.0468,-0.0418,-0.0377,-0.037,-0.0368,-0.0386,-0.0365,-0.0354,-0.0363,-0.028,-0.0303,-0.0293,-0.0264,-0.018,-0.0176,-0.0172,-0.0148,-0.014,-0.0133,0,0,0,0,0,0,-0.0492,-0.0469,-0.0475,-0.0423,-0.0402,-0.038,-0.0353,-0.0359,-0.0332,-0.0336,-0.0333,-0.0327,-0.0279,-0.0266,-0.0292,-0.0208,-0.0233,-0.0227,-0.0218,-0.021,-0.0204,-0.0208,-0.0315,0,0,0,0,0,-0.0481,-0.045,-0.0431,-0.0387,-0.0376,-0.0366,-0.0348,-0.0348,-0.0326,-0.0317,-0.0302,-0.028,-0.0249,-0.0229,-0.0199,-0.0143,-0.0138,-0.0118,-0.0112,-0.0107,-0.0102,-0.0072,-0.0063,-0.0156,-0.0156,-0.0156,0,0,-0.0456,-0.044,-0.0421,-0.0381,-0.0365,-0.0333,-0.0358,-0.0323,-0.03,-0.0312,-0.0267,-0.0255,-0.023,-0.0178,-0.0154,-0.0166,-0.0075,-0.0102,-0.0098,-0.0095,-0.0067,-0.0058,-0.005,-0.0153,-0.0154,-0.0154,0,0,-0.0396,-0.0381,-0.0342,-0.0326,-0.0301,-0.0295,-0.0286,-0.0263,-0.0256,-0.0211,-0.022,-0.0191,-0.0137,-0.012,-0.0104,-0.0037,-0.0045,-0.0028,0.0005,0.0034,0.0041,0.0047,0.007,0.0078,-0.0022,-0.0022,-0.0022,0,-0.0369,-0.0322,-0.0321,-0.0286,-0.0269,-0.0279,-0.024,-0.0223,-0.019,-0.0178,-0.0192,-0.0126,-0.0109,-0.0054,-0.0038,-0.0024,-0.0014,-0.0031,0.004,0.0046,0.0052,0.0074,0.0082,-0.002,-0.002,-0.0021,-0.0021,0,-0.0291,-0.0258,-0.023,-0.0199,-0.0178,-0.0141,-0.0134,-0.0112,-0.0114,-0.0107,-0.0061,-0.0041,-0.0009,0.0005,0.0004,0.006,0.0051,0.0039,0.0014,0.0063,0.0083,0.0092,-0.0017,-0.0018,-0.0019,-0.0019,0,0,-0.0214,-0.0184,-0.0173,-0.016,-0.0134,-0.0108,-0.0071,-0.004,-0.0023,0.0001,0.0031,0.0077,0.0065,0.0083,0.0084,0.0109,0.0159,0.0094,0.0094,0.0104,0.0221,0.023,0.0239,0.0154,0.0156,0.0157,0.0219,0,-0.0153,-0.009,-0.0088,-0.003,0.0,-0.0009,0.0023,0.0042,0.0051,0.0078,0.0087,0.0119,0.0101,0.0112,0.0137,0.0148,0.0183,0.0144,0.0183,0.0184,0.0175,0.025,0.0259,0.0316,0.0227,0.0228,0.0229,0,-0.0074,-0.0049,0.0012,0.0033,0.0045,0.0074,0.0102,0.0128,0.015,0.0155,0.0175,0.0172,0.0209,0.0184,0.0235,0.0209,0.0225,0.0233,0.0235,0.0238,0.0209,0.0254,0.0335,0.0343,0.0242,0.0241,0.024,0,-0.0026,0.0023,0.0065,0.0078,0.0104,0.0124,0.0135,0.0156,0.0174,0.0199,0.0211,0.0241,0.0257,0.028,0.0285,0.0266,0.0336,0.0311,0.0341,0.034,0.0355,0.0354,0.0438,0.0368,0.0367,0.0367,0.0367,0,0.0042,0.0079,0.0087,0.0113,0.0155,0.0157,0.0198,0.0209,0.0227,0.0255,0.0249,0.0276,0.0281,0.0309,0.0314,0.0355,0.0363,0.0367,0.0368,0.0367,0.0366,0.0377,0.0373,0.037,0.0369,0.0369,0.0368,0,0.0102,0.0109,0.0154,0.0175,0.0181,0.0211,0.0228,0.0253,0.0261,0.0297,0.0305,0.0317,0.0349,0.0357,0.0396,0.0399,0.0448,0.0445,0.044,0.0439,0.0468,0.0464,0.0561,0.0573,0.0495,0.0496,0.0497,0,0.0144,0.0172,0.0196,0.0213,0.0226,0.0255,0.0274,0.0277,0.0297,0.0323,0.0345,0.0377,0.0402,0.0454,0.0467,0.0496,0.0493,0.0525,0.0498,0.0496,0.0492,0.049,0.0493,0.053,0.0531,0.0532,0.0532,0,0.0217,0.0219,0.0245,0.0273,0.0295,0.0317,0.0338,0.0353,0.036,0.0382,0.0414,0.0434,0.0473,0.0504,0.0533,0.0546,0.054,0.0541,0.0549,0.0548,0.0543,0.0545,0.0453,0.0538,0.0538,0.0537,0.0537,0.0537,0.0269,0.0293,0.0313,0.0342,0.0358,0.0378,0.0402,0.0412,0.0439,0.0471,0.0472,0.0507,0.0528,0.0567,0.0581,0.0609,0.0599,0.0611,0.0614,0.0617,0.0618,0.054,0.0614,0.0614,0.0614,0.0614,0.0614,0,0.034,0.0353,0.038,0.0409,0.0432,0.0424,0.0447,0.0467,0.0498,0.0518,0.0542,0.0579,0.0609,0.0624,0.0654,0.0673,0.0671,0.0681,0.0679,0.0682,0.0626,0.0615,0.0682,0.0682,0.0682,0.0682,0.0682,0.0682,0.038,0.0421,0.0425,0.0473,0.0485,0.0519,0.0533,0.0551,0.0567,0.0608,0.0633,0.0642,0.066,0.0691,0.0718,0.0721,0.0732,0.0743,0.0745,0.0693,0.0686,0.0679,0.0669,0.0746,0.0746,0.0798,0.0799,0.0799]},{"header":{"parameterUnit":"m.s-1","parameterCategory":1,"la1":30.2991,"la2":30.254,"lo1":-89.0895,"lo2":-89.0444,"dy":0.0017,"dx":0.0017,"nx":28,"ny":28,"refTime":"2023-09-17T21:00:00:Z","depth":0,"parameterNumber":3,"parameterNumberName":"V-component_of_WINDS"},"data":[0,0,0,0,0,0,0,0,0,0,0,0,0,0,0,0,0,0,0,0,0,0,0,0,0,0,0,0,0,0,0,0,0,0,0,0,0,0,0,0,0,0,0,0,0,0,0,0,0,0,0,0,0,0,0,0,0,0,0.4847,0.4844,0,0.4544,0.4541,0.4537,0.4316,0.4314,0.4312,0.431,0.3995,0.3989,0.3982,0,0,0,0,0,0,0,0,0,0,0,0,0,0.5229,0.5223,0.4847,0.4843,0.484,0.4545,0.454,0.4536,0.4316,0.4314,0.4312,0.431,0.3997,0.3989,0.3981,0,0,0,0,0,0,0,0,0,0,0,0,0,0.5008,0.5221,0.4848,0.4694,0.4678,0.4546,0.454,0.4535,0.4317,0.4314,0.4311,0.4308,0.4,0.399,0.398,0.3975,0,0,0.395,0.3946,0,0,0,0,0,0,0,0,0.5021,0.4994,0.4721,0.4705,0.4686,0.4465,0.4559,0.4347,0.4317,0.4454,0.431,0.4307,0.4153,0.4131,0.408,0.396,0.3947,0.3949,0.3943,0.3939,0.3936,0,0,0,0,0,0,0,0.5036,0.5006,0.4727,0.4717,0.4696,0.4638,0.4604,0.4518,0.4323,0.4441,0.4425,0.4392,0.4143,0.409,0.4071,0.3942,0.3949,0.394,0.3934,0.393,0.38,0.3802,0,0,0,0,0,0,0.5077,0.502,0.4737,0.4718,0.485,0.4634,0.4595,0.4539,0.4323,0.4288,0.4395,0.4383,0.4108,0.4083,0.4059,0.4036,0.3939,0.3929,0.3924,0.3797,0.38,0.3803,0,0,0,0,0,0,0.5086,0.5053,0.4749,0.4864,0.4821,0.463,0.4568,0.4534,0.448,0.4288,0.4251,0.4377,0.4105,0.4073,0.3997,0.4022,0.3925,0.3916,0.3794,0.3798,0.3801,0.3993,0,0,0,0,0,0,0.5098,0.5058,0.5056,0.4866,0.4816,0.4695,0.457,0.453,0.4465,0.4446,0.4261,0.4228,0.41,0.4013,0.3987,0.4007,0.3908,0.3791,0.3796,0.38,0.3984,0.4003,0.402,0,0,0,0,0,0.5112,0.5121,0.5057,0.5024,0.4809,0.4697,0.4668,0.4523,0.4468,0.4462,0.4338,0.4234,0.4024,0.4007,0.3976,0.3993,0.3789,0.3794,0.38,0.3976,0.3999,0.4019,0,0,0,0,0,0,0.5317,0.5093,0.5019,0.4968,0.4854,0.466,0.4649,0.4553,0.445,0.4437,0.4259,0.4219,0.4161,0.4069,0.4055,0.3975,0.3893,0.3893,0.4037,0.4058,0.4076,0.4098,0.39,0,0,0,0,0,0.5357,0.5286,0.5093,0.5066,0.5013,0.4842,0.4787,0.4685,0.4558,0.4508,0.4378,0.4258,0.4164,0.4106,0.4009,0.397,0.3924,0.3966,0.3984,0.3999,0.4001,0.397,0.3985,0.3821,0.3821,0.3821,0,0,0.5437,0.5306,0.5272,0.5104,0.5003,0.4932,0.4802,0.4732,0.4676,0.4496,0.4417,0.4318,0.4171,0.4114,0.4081,0.4035,0.4036,0.4007,0.4021,0.4013,0.3978,0.3993,0.4007,0.3825,0.3824,0.3824,0,0,0.5546,0.5442,0.5406,0.5308,0.5157,0.5043,0.5035,0.4856,0.4783,0.4701,0.4564,0.4494,0.4338,0.4238,0.4167,0.4239,0.4138,0.4212,0.4305,0.4278,0.429,0.4301,0.4324,0.4335,0.4214,0.4215,0.4215,0,0.5664,0.5553,0.54,0.5338,0.5267,0.5103,0.5065,0.4976,0.4801,0.4755,0.4706,0.4505,0.4395,0.431,0.4328,0.4277,0.4259,0.4232,0.4301,0.431,0.4318,0.4338,0.4347,0.4225,0.4224,0.4222,0.4222,0,0.5705,0.5629,0.5619,0.5456,0.5384,0.5334,0.5172,0.5117,0.5021,0.4912,0.4829,0.4691,0.4563,0.4535,0.4441,0.4436,0.4412,0.4335,0.4249,0.4346,0.4362,0.4368,0.4239,0.4235,0.4232,0.423,0,0,0.5934,0.5687,0.5685,0.5609,0.543,0.5368,0.531,0.5186,0.5141,0.5026,0.4971,0.4842,0.4769,0.4689,0.4581,0.4558,0.462,0.4482,0.4476,0.4511,0.4604,0.4663,0.4674,0.4553,0.4554,0.4555,0.4616,0,0.6014,0.5903,0.5763,0.5699,0.5626,0.5468,0.5417,0.5301,0.5197,0.5118,0.5002,0.4913,0.4825,0.4775,0.4744,0.462,0.4636,0.4613,0.4497,0.4495,0.4538,0.4682,0.4744,0.4808,0.4621,0.4622,0.4623,0,0.6092,0.5987,0.5916,0.5742,0.5706,0.5664,0.5538,0.5465,0.5329,0.5255,0.5166,0.5051,0.4979,0.4904,0.48,0.4788,0.4732,0.4664,0.4662,0.4644,0.4564,0.4667,0.4825,0.4835,0.4631,0.4631,0.463,0,0.6265,0.6105,0.604,0.598,0.5776,0.575,0.5663,0.5525,0.5459,0.5348,0.5303,0.5186,0.5121,0.5032,0.4886,0.4846,0.4798,0.4711,0.4732,0.4736,0.4728,0.473,0.4879,0.4696,0.4696,0.4696,0.4696,0,0.6367,0.633,0.6115,0.6076,0.6028,0.5867,0.5823,0.5722,0.56,0.5536,0.5393,0.5336,0.5149,0.5069,0.4955,0.4885,0.4858,0.4794,0.4763,0.4805,0.4814,0.4765,0.4756,0.4698,0.4698,0.4697,0.4697,0,0.6551,0.6406,0.6325,0.614,0.6092,0.6065,0.5904,0.5859,0.5747,0.5668,0.564,0.5464,0.5362,0.5209,0.5062,0.4985,0.4933,0.4885,0.498,0.4961,0.499,0.4989,0.5111,0.5118,0.4935,0.4937,0.4939,0,0.6625,0.6592,0.6404,0.6352,0.6271,0.6189,0.6121,0.5961,0.5896,0.5738,0.5711,0.5599,0.5501,0.5345,0.5202,0.5088,0.5034,0.5085,0.5016,0.5059,0.5032,0.5035,0.503,0.5101,0.5104,0.5106,0.5108,0,0.6772,0.6701,0.661,0.6494,0.6418,0.6318,0.6211,0.6176,0.5992,0.5926,0.5821,0.5746,0.5595,0.5484,0.535,0.5258,0.5152,0.5131,0.5129,0.5171,0.5227,0.5195,0.5022,0.5129,0.5126,0.5125,0.5124,0.5123,0.69,0.6863,0.6725,0.6627,0.6531,0.6434,0.6382,0.6264,0.6175,0.6041,0.5951,0.5852,0.5714,0.5523,0.5437,0.5354,0.5309,0.5307,0.5306,0.5308,0.5322,0.5242,0.5329,0.5329,0.5328,0.5327,0.5327,0,0.7037,0.6941,0.6853,0.6709,0.6632,0.6542,0.6418,0.6359,0.6274,0.6156,0.6062,0.5941,0.5833,0.5682,0.5562,0.5525,0.5473,0.5499,0.5498,0.5478,0.5371,0.5383,0.5543,0.5542,0.5542,0.5542,0.5542,0.5542,0.71,0.7032,0.6946,0.6827,0.6729,0.6632,0.6569,0.6478,0.6383,0.6255,0.6166,0.6069,0.5936,0.5805,0.5701,0.5659,0.5621,0.5661,0.5604,0.5506,0.5486,0.5467,0.5478,0.5655,0.5655,0.5718,0.5719,0.5719]}]]